Location: Unspecified
(43.4680°N, 87.1740°E)
Time: 21:45:19
(UTC+00:00)

Cosmos 2263 Rocket - Pass Details

Date: 17 April 2021
Orbit: 824 x 848 km, 71.0° (Epoch: 12 May)

Event Time Altitude Azimuth Distance (km) Brightness Sun altitude
Exits shadow 16:54:48 19° 48° (NE) 1,862 4.1 -33.1°
Drops below altitude 10° 16:56:30 10° 39° (NE) 2,432 4.9 -33.2°
Sets 16:59:03 0° 32° (NNE) 3,371 5.8 -33.4°
